Weather History for Moses Lake, WA

Change the Weather History Date:

Monday, March 18, 2013

  Actual Average Record
Temperature  
Mean Temperature 43 °F 44 °F  
Max Temperature 54 °F 56 °F 66 °F (2007)
Min Temperature 32 °F 32 °F 21 °F (2002)
Degree Days  
Heating Degree Days 22 21  
Month to date heating degree days 356 417  
Since 1 July heating degree days 4475 4922  
Cooling Degree Days 0 0  
Month to date cooling degree days 0 0  
Year to date cooling degree days 0 0  
Moisture  
Dew Point 22 °F    
Average Humidity 44    
Maximum Humidity 64    
Minimum Humidity 24    
Precipitation  
Precipitation 0.00 in 0.02 in 0.09 in (2001)
Month to date precipitation 0.51 0.39  
Year to date precipitation 0.96 2.33  
Sea Level Pressure  
Sea Level Pressure 30.09 in    
Wind  
Wind Speed 13 mph (West)    
Max Wind Speed 23 mph    
Max Gust Speed 28 mph    
Visibility 10 miles    
Events      
T = Trace of Precipitation, MM = Missing Value Source: NWS Daily Summary

Daily Weather History Graph

Daily Weather History Graph

Search for Another Location

Airport:

Trip Planner

Search our weather history database for the weather conditions in past years. The results will help you decide how hot, cold, wet, or windy it might be!

Date:

Astronomy

Mar. 18, 2013 Rise Set
Actual Time 7:03 AM PDT 7:07 PM PDT
Civil Twilight 6:33 AM PDT 7:38 PM PDT
Nautical Twilight 5:57 AM PDT 8:13 PM PDT
Astronomical Twilight 5:20 AM PDT 8:50 PM PDT
Moon 10:44 AM PDT (3/18) 1:33 AM PDT (3/18)
Length of Visible Light 13h 05m
Length of Day
12h 04m
Waxing Crescent, 41% of the Moon is Illuminated
Mar 18
Waxing Crescent
Mar 19
First Quarter
Mar 27
Full
Apr 2
Last Quarter
Apr 10
New

Hourly Weather History & Observations

Time (PDT) Temp. Windchill Dew Point Humidity Pressure Visibility Wind Dir Wind Speed Gust Speed Precip Events Conditions
12:52 AM 39.0 °F 31.4 °F 23.0 °F 53% 30.07 in 10.0 mi WSW 12.7 mph - N/A   Clear
1:52 AM 37.0 °F 28.5 °F 23.0 °F 57% 30.06 in 10.0 mi West 13.8 mph - N/A   Clear
2:52 AM 37.0 °F 27.4 °F 23.0 °F 57% 30.06 in 10.0 mi West 17.3 mph - N/A   Clear
3:52 AM 36.0 °F 27.5 °F 23.0 °F 59% 30.06 in 10.0 mi WSW 12.7 mph - N/A   Clear
4:52 AM 36.0 °F 27.5 °F 24.1 °F 62% 30.05 in 10.0 mi WSW 12.7 mph - N/A   Clear
5:52 AM 35.1 °F 28.6 °F 24.1 °F 64% 30.06 in 10.0 mi WSW 8.1 mph - N/A   Clear
6:52 AM 36.0 °F 29.0 °F 24.1 °F 62% 30.06 in 10.0 mi SSW 9.2 mph - N/A   Clear
7:52 AM 37.9 °F 29.6 °F 24.1 °F 57% 30.07 in 10.0 mi SW 13.8 mph - N/A   Clear
8:52 AM 39.9 °F 32.1 °F 25.0 °F 55% 30.06 in 10.0 mi SSE 13.8 mph - N/A   Clear
9:52 AM 46.0 °F 39.6 °F 23.0 °F 40% 30.05 in 10.0 mi SSW 15.0 mph 25.3 mph N/A   Partly Cloudy
10:52 AM 48.0 °F - 23.0 °F 37% 30.05 in 10.0 mi SW 17.3 mph 26.5 mph N/A   Overcast
11:52 AM 48.9 °F - 24.1 °F 38% 30.05 in 10.0 mi SW 13.8 mph - N/A   Overcast
12:52 PM 52.0 °F - 24.1 °F 34% 30.18 in 10.0 mi Calm Calm - N/A   Mostly Cloudy
1:52 PM 53.1 °F - 25.0 °F 34% 30.04 in 10.0 mi NW 11.5 mph 18.4 mph N/A   Partly Cloudy
2:52 PM 53.1 °F - 23.0 °F 31% 30.05 in 10.0 mi NNW 10.4 mph 20.7 mph N/A   Mostly Cloudy
3:52 PM 53.1 °F - 18.0 °F 25% 30.06 in 10.0 mi NNW 16.1 mph 25.3 mph N/A   Clear
4:52 PM 53.1 °F - 19.0 °F 26% 30.07 in 10.0 mi NNW 16.1 mph - N/A   Clear
5:52 PM 50.0 °F - 16.0 °F 26% 30.09 in 10.0 mi NW 23.0 mph 27.6 mph N/A   Clear
6:52 PM 45.0 °F 38.2 °F 19.0 °F 36% 30.11 in 10.0 mi NNW 15.0 mph - N/A   Clear
7:52 PM 42.1 °F 34.2 °F 18.0 °F 38% 30.14 in 10.0 mi NW 16.1 mph - N/A   Clear
8:52 PM 42.1 °F 33.6 °F 17.1 °F 37% 30.16 in 10.0 mi NW 18.4 mph - N/A   Clear
9:52 PM 41.0 °F 33.1 °F 17.6 °F 39% 30.17 in 10.0 mi WNW 15.0 mph - N/A   Clear
10:52 PM 37.4 °F 30.8 °F 19.4 °F 48% 30.18 in 10.0 mi NW 9.2 mph - N/A   Clear
11:52 PM 33.1 °F 26.1 °F 19.9 °F 59% 30.22 in 10.0 mi NNE 8.1 mph - N/A   Clear